DW6780 Weather Reports


time (UTC)temp
C
wind
direction
speed
KPH
gust
KPH
rain 1hr
cm
rain 24hr
cm
rain mn
cm
humidity
%
barometer
mb
20260506113044 23 5 0.0 0.0 0.00 0.00 0.00 92 1005.6
20260506111552 23 5 0.0 0.0 0.00 0.00 0.00 92 1005.6
20260506110042 23 5 0.0 0.0 0.00 0.00 0.00 91 1005.5
20260506104542 23 5 0.0 0.0 0.00 0.00 0.00 91 1005.4
20260506103039 23 5 0.0 0.0 0.00 0.00 0.00 91 1005.2
20260506101539 23 5 0.0 0.0 0.00 0.00 0.00 91 1005.2
20260506100037 23 5 0.0 0.0 0.00 0.00 0.00 91 1005.0
20260506094536 23 5 0.0 0.0 0.00 0.00 0.00 91 1004.7
20260506093035 23 5 0.0 0.0 0.00 0.00 0.00 91 1004.6
20260506091535 23 5 0.0 0.0 0.00 0.00 0.00 91 1004.4
20260506090034 23 5 0.0 0.0 0.00 0.00 0.00 91 1004.2
20260506084533 23 5 0.0 0.0 0.00 0.00 0.00 91 1004.3
20260506083033 23 5 0.0 0.0 0.00 0.00 0.00 91 1004.3
20260506081537 23 5 0.0 0.0 0.00 0.00 0.00 91 1004.3
20260506073032 23 5 0.0 0.0 0.00 0.00 0.00 90 1004.7
20260506071532 23 5 0.0 0.0 0.00 0.00 0.00 90 1004.7
20260506061534 23 5 0.0 0.0 0.00 0.00 0.00 90 1004.8
20260506044520 24 5 0.0 0.0 0.00 0.00 0.00 90 1004.7
20260506043017 24 5 0.0 0.0 0.00 0.00 0.00 89 1004.7
20260506041517 24 5 0.0 0.0 0.00 0.00 0.00 89 1004.5
20260506040024 25 5 0.0 0.0 0.00 0.00 0.00 88 1004.4
20260506034517 25 5 0.0 0.0 0.00 0.00 0.00 88 1004.1
20260506033016 25 5 0.0 0.0 0.00 0.00 0.00 87 1004.2
20260506031521 25 5 0.0 0.0 0.00 0.00 0.00 86 1004.0
20260506030016 25 5 0.0 0.0 0.00 0.00 0.00 85 1003.8
20260506024529 25 5 0.0 0.0 0.00 0.00 0.00 84 1003.6
20260506023013 25 5 0.0 0.0 0.00 0.00 0.00 84 1003.4
20260506021513 26 5 0.0 0.0 0.00 0.00 0.00 83 1003.1
20260506020012 26 5 0.0 0.0 0.00 0.00 0.00 83 1002.7
20260506014515 26 5 0.0 0.0 0.00 0.00 0.00 82 1002.6
20260506013011 26 5 0.0 0.0 0.00 0.00 0.00 81 1002.6
20260506011520 27 5 0.0 0.0 0.00 0.00 0.00 80 1002.6
20260506010009 27 5 0.0 0.0 0.00 0.00 0.00 79 1002.6
20260506004509 27 5 0.0 0.0 0.00 0.00 0.00 78 1002.6
20260506003013 27 5 0.0 0.0 0.00 0.00 0.00 77 1002.6
20260506001509 27 5 0.0 0.0 0.00 0.00 0.00 76 1002.8
20260506000008 28 5 0.0 0.0 0.00 0.00 0.00 76 1002.6
20260505234517 28 5 0.0 0.0 0.00 0.00 0.00 75 1002.4
20260505233006 28 5 0.0 0.0 0.00 0.00 0.00 75 1002.3
20260505231507 28 5 0.0 0.0 0.00 0.00 0.00 74 1002.2
20260505230009 28 5 0.0 0.0 0.00 0.00 0.00 74 1002.3
20260505224506 28 5 0.0 0.0 0.00 0.00 0.00 74 1002.2
20260505223005 29 5 0.0 0.0 0.00 0.00 0.00 72 1002.1
20260505221504 29 5 0.0 0.0 0.00 0.00 0.00 72 1002.1
20260505220003 29 5 0.0 0.0 0.00 0.00 0.00 71 1002.1
20260505214502 29 5 0.0 0.0 0.00 0.00 0.00 71 1002.4
20260505213101 30 5 0.0 0.0 0.00 0.00 0.00 70 1002.5
20260505211558 30 5 0.0 0.0 0.00 0.00 0.00 72 1002.8
20260505210057 29 5 0.0 0.0 0.00 0.00 0.00 72 1002.7
20260505204601 29 5 0.0 0.0 0.00 0.00 0.00 73 1002.8
20260505203101 29 5 0.0 0.0 0.00 0.00 0.00 73 1003.1
20260505201551 29 5 0.0 0.0 0.00 0.00 0.00 74 1003.4
20260505200050 28 5 0.0 0.0 0.00 0.00 0.00 74 1003.7
20260505194605 28 5 0.0 0.0 0.00 0.00 0.00 74 1003.9
20260505193049 28 5 0.0 0.0 0.00 0.00 0.00 73 1004.1
20260505191558 28 5 0.0 0.0 0.00 0.00 0.00 73 1004.1
20260505190048 28 5 0.0 0.0 0.00 0.00 0.00 74 1004.2
20260505184541 27 5 0.0 0.0 0.00 0.00 0.00 76 1004.4
20260505183040 26 5 0.0 0.0 0.00 0.00 0.00 79 1004.7
20260505181537 26 5 0.0 0.0 0.00 0.00 0.00 80 1004.9
20260505180043 25 5 0.0 0.0 0.00 0.00 0.00 81 1005.0
20260505174532 25 5 0.0 0.0 0.00 0.00 0.00 83 1005.3
20260505173027 24 5 0.0 0.0 0.00 0.00 0.00 84 1005.4
20260505171524 24 5 0.0 0.0 0.00 0.00 0.00 85 1005.6
20260505170022 23 5 0.0 0.0 0.00 0.00 0.00 86 1005.6
20260505164519 23 5 0.0 0.0 0.00 0.00 0.00 87 1005.6
20260505163018 23 5 0.0 0.0 0.00 0.00 0.00 87 1005.4
20260505161514 22 5 0.0 0.0 0.00 0.00 0.00 89 1005.4
20260505153010 22 5 0.0 0.0 0.00 0.00 0.00 90 1005.6
20260505151513 21 5 0.0 0.0 0.00 0.00 0.00 90 1005.6
20260505124601 -17 0.0 0.0 0.00 0.00 0.00 1004.4
20260505123059 -17 0.0 0.0 0.00 0.00 0.00 1004.3
20260505121618 21 5 0.0 0.0 0.00 0.00 0.00 91 1004.0
20260505120049 21 5 0.0 0.0 0.00 0.00 0.00 91 1003.8
20260505114548 21 5 0.0 0.0 0.00 0.00 0.00 91 1003.7